This demonstration page uses our WeatherBlox Daily Observations layout. Learn more.

Left ArrowRight Arrow

39.29038, -76.61219

Hourly Observations for December 2, 2021

Temp ( °F °C ) Dew Point ( °F °C ) Humidity (%) Winds ( mph kmh ) Pressure ( in mb ) Visibility ( mi km ) Precip ( " mm )
12:54 am 00:54 Cloudy with Light Rain 47 8.3 42 5.6 83 83 N N/A 29.97 1015 10 16 0.00 0.00
1:54 am 01:54 Cloudy 47 8.3 41 5 80 80 N N/A 29.95 1014 10 16 0.00 0.00
2:54 am 02:54 Cloudy 45 7.2 41 5 86 86 N N/A 29.93 1014 10 16 N/A
3:54 am 03:54 Mostly Cloudy 45 7.2 40 4.4 83 83 N N/A 29.91 1013 10 16 N/A
4:54 am 04:54 Mostly Cloudy 45 7.2 41 5 86 86 N N/A 29.89 1012 10 16 N/A
5:54 am 05:54 Mostly Cloudy 47 8.3 39 3.9 74 74 SW 6 9 29.88 1012 10 16 N/A
6:54 am 06:54 Mostly Cloudy 47 8.3 38 3.3 71 71 SW 6 9 29.88 1012 10 16 N/A
7:54 am 07:54 Mostly Cloudy 48 8.9 38 3.3 68 68 SW 6 9 29.87 1012 10 16 N/A
8:54 am 08:54 Mostly Cloudy 49 9.4 38 3.3 66 66 WSW 6 9 29.87 1011 10 16 N/A
9:54 am 09:54 Cloudy 51 10.6 38 3.3 61 61 SW 6 9 29.83 1010 10 16 N/A
10:54 am 10:54 Cloudy 53 11.7 39 3.9 59 59 WSW 8 13 29.81 1010 10 16 N/A
11:54 am 11:54 Cloudy 59 15 41 5 51 51 SW 10 17 29.76 1008 10 16 N/A
12:54 pm 12:54 Mostly Cloudy 60 15.6 42 5.6 52 52 SSW 9 15 29.72 1006 10 16 N/A
1:54 pm 13:54 Mostly Cloudy 61 16.1 42 5.6 50 50 SW 13 20 29.69 1005 10 16 N/A
2:54 pm 14:54 Mostly Cloudy 64 17.8 42 5.6 45 45 SW 16 26 29.66 1004 10 16 N/A
3:54 pm 15:54 Mostly Cloudy 64 17.8 42 5.6 45 45 SW 13 20 29.65 1004 10 16 N/A
4:54 pm 16:54 Mostly Cloudy 63 17.2 42 5.6 47 47 SW 10 17 29.65 1004 10 16 N/A
5:54 pm 17:54 Mostly Cloudy 63 17.2 42 5.6 47 47 SW 13 20 29.67 1005 10 16 N/A
6:54 pm 18:54 Mostly Cloudy 63 17.2 43 6.1 48 48 SW 10 17 29.67 1005 10 16 0.00 0.00
7:54 pm 19:54 Cloudy with Light Rain 62 16.7 44 6.7 52 52 WSW 8 13 29.69 1005 10 16 0.00 0.00
8:54 pm 20:54 Mostly Cloudy 66 18.9 41 5 40 40 W 21 33 29.70 1006 10 16 0.00 0.00
9:54 pm 21:54 Mostly Clear 62 16.7 41 5 46 46 W 14 22 29.73 1007 10 16 N/A
10:54 pm 22:54 Mostly Clear 61 16.1 39 3.9 44 44 W 14 22 29.74 1007 10 16 N/A
11:54 pm 23:54 Mostly Clear 59 15 38 3.3 46 46 WNW 17 28 29.76 1008 10 16 N/A

Powered by AerisWeather